Location: アルンシュタイン
(50.0000°N, 10.0000°E)
Time: 19:39:05
(UTC+02:00)

Vanguard 2 - Visible Passes

Search period start: 11 September 2024 00:00
Search period end: 21 September 2024 00:00
Orbit: 552 x 2911 km, 32.9° (Epoch: 10 September)

Date Brightness Start Highest point End Pass type
(mag) Time Alt. Az. Time Alt. Az. Time Alt. Az.
11 Sep 10.2 05:56:10 10° SSW 06:00:51 18° SSE 06:07:03 10° ESE visible
12 Sep 10.1 06:09:18 10° SSW 06:14:17 20° SSE 06:21:04 10° ESE visible
13 Sep 10.0 06:22:38 10° SSW 06:27:45 22° SSE 06:34:53 10° ESE visible
15 Sep 9.9 04:45:44 10° S 04:47:57 12° SSE 04:50:28 10° SE visible
16 Sep 9.7 04:59:00 11° S 05:01:23 14° SSE 05:04:48 10° SE visible
17 Sep 9.6 05:12:16 12° S 05:14:52 15° SSE 05:18:45 10° SE visible
18 Sep 9.6 05:25:33 11° SSW 05:28:24 16° SSE 05:32:29 10° SE visible
19 Sep 9.6 05:38:49 10° SSW 05:41:58 16° S 05:46:00 10° SE visible
20 Sep 9.6 05:52:29 10° SSW 05:55:34 15° S 05:59:18 10° SE visible
